Temp_Advection
nan nan nan nan nan nan nan nan nan nan nan nan nan nan nan nan nan nan nan nan nan nan nan nan nan nan nan nan nan nan nan nan nan nan nan nan nan nan nan nan nan nan nan nan nan nan nan nan nan nan nan nan nan nan nan nan nan nan nan nan nan nan nan nan nan nan nan nan nan
nan 1 1 1 1 1 1 1 1 1 1 1 1 1 1 1 1 1 0 0 1 0 0 0 -0 -0 -0 -0 -0 -0 -0 -0 0 0 0 0 0 0 0 0 -0 -0 -0 -0 -0 -0 -0 -0 -0 0 -0 -0 -0 -0 -0 -0 -0 -0 -0 -0 -0 -0 -0 -0 -0 -0 -0 -0 nan
nan 1 1 1 1 1 1 1 1 1 1 1 1 1 1 0 0 1 1 1 0 0 0 -0 -0 -0 -0 -0 -1 -0 -0 -0 0 0 0 0 0 0 0 0 0 0 0 0 0 -0 -0 -0 -0 -0 -0 -0 -0 -0 -0 -0 -0 -0 -0 -0 -0 -0 -0 -0 -0 -0 -0 -0 nan
nan 1 1 1 1 1 1 1 0 1 1 1 0 0 0 1 1 1 0 0 0 0 0 0 -0 -0 -1 -1 -1 -0 -0 -0 0 0 0 0 0 0 0 1 1 1 1 1 1 0 0 1 0 0 0 -0 -0 -0 -0 -0 -0 -0 -0 -0 -1 -0 -0 -1 -0 -0 -0 -0 nan
nan 1 1 1 1 1 1 1 1 1 1 0 0 0 0 0 0 0 0 0 0 0 0 -0 -0 -1 -1 -1 -0 -0 -0 -0 0 0 0 0 0 0 0 0 1 1 1 1 1 1 1 1 1 1 0 0 -0 -0 -0 -0 -0 -0 -0 -0 -0 -0 -1 -0 -1 -1 -0 -0 nan
nan 1 1 1 1 1 1 1 1 1 0 0 0 0 0 0 0 0 0 0 0 0 -0 -0 -1 -1 -1 -0 -0 -0 -0 -0 -0 0 0 -0 -0 -0 0 0 0 0 0 0 0 0 1 1 1 1 0 0 0 -0 -0 -0 -0 -0 -0 -0 -0 -0 -0 -0 -1 -1 -1 -1 nan
nan 1 1 1 1 1 1 1 1 1 1 1 0 0 0 0 0 0 0 0 -0 -0 -0 -0 -1 -1 -1 -0 -0 -0 -0 -0 -0 -0 0 0 -0 -0 -0 0 0 0 0 0 0 0 0 1 1 1 0 0 -0 -0 -0 -0 -0 -0 -0 -0 -0 -0 -0 -0 -0 -1 -1 -1 nan
nan 1 1 1 1 1 1 1 1 1 1 0 0 0 0 0 0 0 -0 -0 -0 -0 -0 -0 -1 -1 -0 0 0 -0 -0 -0 -0 -0 -0 -0 -0 -0 -0 -0 0 0 0 0 0 0 1 1 1 0 0 0 -0 -0 -0 -0 -0 -0 -0 -0 -0 -0 -0 -0 -0 -0 -0 -0 nan
nan 1 1 1 1 1 1 1 1 1 0 0 0 0 0 -0 -0 -0 -0 -0 -0 -0 -0 -1 -1 -0 -0 0 0 -0 -0 -0 -0 -1 -1 -0 -0 -1 -1 -0 -0 -0 -0 -0 0 0 1 1 1 0 -0 -0 -0 -0 -0 -0 0 0 -0 -0 -0 -0 -0 -0 -0 -0 -0 -0 nan
nan 1 1 1 1 2 1 1 1 0 0 0 0 0 -0 -0 -0 -0 -0 -0 -0 -0 -1 -1 -1 -0 -0 -0 -0 -1 -1 -1 -1 -1 -1 -1 -1 -1 -1 -1 -1 -1 -0 -0 -0 0 0 0 0 0 -0 -0 -0 0 0 0 0 0 -0 -0 -0 -0 -0 -0 -0 -0 -0 -0 nan
nan 1 1 1 1 1 1 1 1 0 0 0 -0 -0 0 0 -0 -0 -0 -1 -1 -1 -1 -1 -0 -1 -1 -1 -1 -1 -1 -1 -1 -1 -1 -1 -1 -1 -0 -0 -0 -0 -0 0 0 0 0 0 -0 0 0 0 -0 0 0 0 0 0 -0 -0 -0 -0 -0 -0 -0 -0 -0 -0 nan
nan 1 1 1 1 1 1 0 0 0 0 -0 0 0 0 0 0 -0 -0 -1 -1 -0 -0 -0 -0 -0 -0 -1 -1 -1 -1 -0 -0 -0 -0 -0 -0 -0 -0 -0 -0 -0 -0 0 0 0 0 0 0 -0 -0 0 0 0 0 0 0 0 -0 -0 -0 -0 0 -0 -0 -0 -0 -0 nan
nan 1 1 1 1 1 0 0 0 0 0 0 0 0 0 0 0 0 -0 -0 -0 -0 -0 -0 -0 -0 -0 -0 -0 -0 -0 -0 -0 0 -0 -0 -0 -0 -0 -0 0 -0 0 0 0 0 0 0 0 0 -0 -0 0 0 0 0 0 0 0 -0 -0 -0 -0 -0 -0 -0 -0 -0 nan
nan 1 1 1 1 0 0 0 0 0 0 0 0 0 0 0 0 0 0 -0 -0 -0 0 0 0 0 0 0 0 0 0 0 0 0 0 -0 -0 0 0 -0 -0 0 0 0 0 0 0 0 0 0 0 0 0 0 0 0 0 -0 -0 -0 -0 -0 -0 -0 -0 -0 -0 -0 nan
nan 1 1 1 0 0 0 0 0 0 0 0 0 0 0 0 0 0 0 0 0 -0 -0 0 0 0 0 0 0 0 0 0 -0 -0 -0 -0 -0 0 0 0 -0 0 0 0 0 0 0 0 0 0 0 0 0 0 0 0 0 0 -0 -0 0 0 -0 -0 -0 -0 -0 -0 nan
nan 1 1 1 0 0 0 0 0 0 0 -0 -0 0 0 0 0 0 0 0 0 -0 -0 -0 -0 0 0 0 0 0 -0 -0 0 -0 -0 -0 -0 0 0 0 0 0 0 0 0 0 0 0 0 0 0 0 0 0 0 0 0 0 0 0 0 0 -0 -0 -0 -0 0 0 nan
nan 1 1 0 0 0 0 0 0 0 -0 -0 0 0 0 0 0 0 0 0 0 0 0 -0 0 -0 -0 0 0 0 0 -0 -0 -0 -0 -0 -0 -0 -0 -0 0 0 0 0 0 0 0 0 0 0 0 0 0 0 0 0 0 0 0 0 0 0 0 0 0 0 0 0 nan
nan 0 0 0 0 0 0 0 0 0 0 0 0 0 0 0 0 0 0 0 0 0 0 0 0 0 -0 -0 -0 -0 -0 -0 -0 -0 -0 -0 -0 -0 -0 -0 -0 -0 -0 0 0 0 0 0 0 0 0 0 0 0 0 0 0 0 0 0 0 0 0 0 0 1 1 1 nan
nan 0 0 0 0 0 0 0 0 0 0 0 0 0 0 0 0 0 0 0 0 0 0 0 0 0 0 0 0 0 0 -0 -0 -0 -0 -0 -0 -0 -0 -0 -0 -0 -0 0 0 0 0 0 0 0 0 0 0 0 0 0 0 0 0 0 1 1 1 1 1 1 1 1 nan
nan 0 0 0 0 0 0 0 0 0 0 0 0 0 0 0 0 0 0 0 0 0 0 0 0 0 0 0 0 0 0 0 0 0 -0 -0 -0 -0 -0 -0 -0 -0 -0 -0 0 0 0 0 0 0 0 0 0 0 0 0 0 0 1 1 1 1 1 1 1 1 1 1 nan
nan 0 0 0 0 0 0 0 0 0 0 0 0 0 0 -0 0 0 0 0 0 0 0 0 0 0 0 0 0 0 0 0 0 0 0 0 0 -0 0 0 -0 -0 -0 0 0 0 0 0 0 0 0 0 0 -0 0 0 0 1 1 2 1 1 1 1 1 1 1 1 nan
nan 0 0 0 0 0 0 0 0 0 0 0 0 0 0 0 0 0 0 0 0 0 0 0 0 0 0 0 0 0 0 0 0 0 0 0 0 0 0 0 0 -0 0 0 0 0 0 -0 -0 -0 -0 -0 -0 0 0 1 1 1 2 2 2 1 1 1 0 0 -0 -0 nan
nan 0 0 0 0 0 0 0 0 0 0 0 0 0 0 0 0 0 0 0 0 0 0 0 0 0 0 0 0 0 0 0 0 0 0 0 0 0 0 0 0 -0 -0 -0 -0 -0 -0 -0 0 -0 -0 -0 0 1 1 2 2 2 2 1 1 1 1 0 0 -0 -0 -0 nan
nan 0 0 0 0 0 0 0 0 0 0 0 0 0 0 0 0 0 0 0 0 0 0 0 0 0 0 0 0 0 0 0 0 0 0 0 1 0 0 0 0 -0 0 0 -0 -0 0 0 0 -0 -0 0 1 1 2 2 2 2 1 1 1 1 0 0 0 -0 -0 -0 nan
nan 0 0 0 0 0 0 0 0 0 0 0 0 0 0 0 0 0 0 0 0 0 0 0 1 0 0 0 -0 0 0 0 0 0 0 0 0 0 0 0 -0 0 0 0 0 0 0 0 0 0 0 1 1 1 1 1 1 1 1 1 1 0 0 -0 -0 -0 -0 -0 nan
nan 0 0 0 0 0 0 0 0 0 0 0 0 0 0 0 0 0 0 0 0 0 0 0 0 0 0 0 -0 -0 0 0 0 0 0 0 0 0 0 0 0 0 0 0 0 1 1 1 1 1 1 1 1 1 1 1 1 1 1 1 0 0 -0 -0 -0 -0 -0 -0 nan
nan 0 0 0 0 0 0 0 0 0 0 -0 -0 0 0 0 0 0 0 0 0 0 0 0 0 0 0 0 0 0 0 0 0 0 0 0 0 0 0 0 0 0 0 0 1 1 1 1 1 1 1 1 1 1 1 1 1 1 1 1 0 0 -0 -0 -0 -0 -0 -0 nan
nan 0 0 0 0 0 0 0 0 0 0 0 -0 0 0 0 0 0 0 0 0 0 0 0 0 0 0 0 0 0 0 0 0 0 0 0 0 0 0 0 0 0 0 1 1 1 1 1 1 1 1 1 1 1 1 1 1 1 0 0 0 0 -0 -0 -0 -0 -0 -0 nan
nan 0 0 0 0 0 0 0 0 0 0 0 -0 -0 0 0 0 0 0 0 0 0 0 0 0 0 0 0 0 0 0 0 0 0 0 0 0 0 0 0 0 0 1 1 1 1 1 1 1 1 2 2 2 1 1 1 0 0 0 0 -0 -0 -0 -0 -0 -0 -0 -0 nan
nan 0 0 0 0 0 0 0 0 0 0 0 -0 -0 0 0 0 0 0 0 0 0 0 0 0 0 0 0 0 0 0 0 0 0 0 0 0 0 0 0 0 0 1 1 1 1 1 1 1 1 1 2 2 1 0 0 -0 -0 -0 -0 -0 -0 -0 -0 -0 -0 -0 -0 nan
nan 0 0 0 0 0 0 0 0 0 0 0 0 -0 0 -0 0 0 0 0 0 0 0 0 0 0 0 0 0 0 0 0 0 0 0 0 0 0 0 0 0 0 1 1 1 1 1 1 1 1 1 2 1 1 0 0 -0 -0 -0 -0 -0 -0 -0 -0 -0 -0 -0 -0 nan
nan 0 0 0 0 0 0 0 0 0 0 0 0 0 0 -0 -0 0 0 0 0 0 -0 0 0 0 -0 -0 -0 -0 0 0 0 0 0 0 0 0 0 0 0 1 1 1 0 0 1 1 1 1 1 1 1 1 0 0 -0 -0 -0 -0 -0 -0 0 -0 -0 -0 -0 -0 nan
nan 0 0 0 0 0 0 0 0 0 0 0 0 0 0 0 0 0 -0 0 0 0 -0 0 0 -0 0 -0 -0 0 0 0 0 0 0 0 0 0 0 0 0 1 0 0 0 0 1 1 0 1 1 1 1 0 0 0 -0 -0 -0 -0 -0 -0 0 0 -0 -0 -0 -0 nan
nan 0 0 0 0 0 0 0 0 0 0 0 0 0 0 0 0 0 0 -0 0 0 0 -0 0 0 0 0 0 0 0 0 0 0 0 0 0 0 0 0 0 0 -0 -0 -0 0 1 0 0 0 1 1 1 0 0 0 -0 -0 -0 -0 0 0 0 0 -0 -0 -0 -0 nan
nan 0 0 0 0 -0 0 0 0 0 0 0 0 0 0 0 0 0 0 0 0 -0 0 0 0 0 0 0 0 0 0 0 0 0 0 0 0 0 0 0 -0 -0 -0 -0 0 0 1 1 0 0 1 1 0 0 0 0 -0 -0 0 -0 -0 0 0 -0 -0 0 -0 -0 nan
nan 0 0 0 0 0 0 0 0 0 0 0 0 0 0 0 0 0 0 0 0 -0 -0 0 0 -0 0 0 0 0 0 0 0 1 1 1 1 1 0 -0 -1 -1 -0 0 0 1 1 1 1 0 1 1 0 0 0 0 0 0 -0 -0 0 -0 -0 -0 0 0 -0 -0 nan
nan 0 1 0 0 0 0 0 0 0 0 0 0 0 0 0 0 0 0 0 0 0 -0 -0 -0 -0 0 0 0 0 0 0 0 1 1 1 1 1 0 -1 -1 -1 -1 -0 0 1 1 1 1 1 1 0 0 0 0 0 0 0 0 -0 -0 0 -0 0 -0 -0 0 -0 nan
nan 0 0 0 0 0 0 0 0 0 0 0 0 0 0 0 -0 0 0 0 0 -0 -0 -0 -0 -0 0 0 0 0 0 0 1 1 1 1 1 1 0 -1 -1 -1 -1 -0 0 1 1 0 0 0 1 0 0 0 0 0 0 0 0 -0 -0 -0 0 -0 -0 -0 -0 -0 nan
nan 0 0 0 0 0 0 0 0 0 0 0 0 0 0 0 -0 -0 0 0 0 -0 -0 -0 -0 0 0 0 0 0 0 0 1 1 1 1 1 1 0 -0 -1 -2 -1 -0 0 0 0 0 0 0 0 0 0 0 0 0 0 -0 -0 -0 -0 -0 -0 -0 -0 -0 -0 -0 nan
nan 0 0 0 0 0 0 0 0 0 0 0 0 0 0 0 0 0 0 0 0 0 0 0 0 0 0 0 0 0 0 0 1 1 1 0 0 1 1 -0 -1 -1 -1 -1 -0 0 0 0 0 0 0 0 0 0 0 0 0 0 -0 -0 -0 -0 -0 -0 -0 -0 -0 -0 nan
nan nan nan nan nan nan nan nan nan nan nan nan nan nan nan nan nan nan nan nan nan nan nan nan nan nan nan nan nan nan nan nan nan nan nan nan nan nan nan nan nan nan nan nan nan nan nan nan nan nan nan nan nan nan nan nan nan nan nan nan nan nan nan nan nan nan nan nan nan
Wind_Speed
23 24 25 25 24 23 23 23 23 24 24 24 23 22 22 21 21 20 19 18 18 17 17 17 17 18 19 21 22 24 25 26 26 27 27 28 28 28 28 29 29 29 29 29 29 29 28 28 27 26 26 25 25 25 25 25 25 25 26 27 28 29 29 30 31 31 31 32 32
27 27 27 25 24 23 23 23 23 23 23 23 22 21 21 20 18 17 16 16 15 16 16 18 19 20 22 23 24 25 26 27 28 28 28 28 28 28 29 28 28 28 28 28 28 27 27 27 27 27 26 25 25 25 25 25 25 25 26 27 27 28 28 29 30 30 31 31 31
28 27 26 25 24 23 22 22 21 21 20 20 20 20 19 17 16 15 15 15 15 16 18 19 21 22 24 25 27 27 28 29 29 29 29 29 29 28 28 27 27 27 26 26 26 26 27 27 27 27 26 25 25 25 25 26 26 26 26 27 27 27 27 28 28 29 29 29 30
27 26 25 24 22 21 20 20 19 19 18 18 18 17 17 16 15 15 15 15 16 17 18 18 20 23 25 27 28 29 29 29 29 29 29 29 29 29 28 28 28 28 28 28 28 28 29 29 28 28 28 28 27 27 26 26 26 26 27 27 27 27 28 28 28 28 28 29 29
26 25 23 22 20 19 19 18 17 17 16 16 16 15 15 15 15 15 15 15 16 16 16 17 20 24 27 28 29 29 29 29 29 29 29 29 29 29 29 30 30 30 30 31 31 32 32 32 31 31 30 30 29 29 28 27 27 27 27 27 28 28 28 28 28 28 29 29 29
25 24 22 21 19 19 18 18 16 15 15 14 14 14 14 14 14 14 14 14 15 17 19 21 24 26 28 28 29 29 29 29 29 29 29 30 30 30 31 31 31 32 32 32 33 33 33 32 32 32 31 30 30 30 30 30 28 28 28 28 28 28 28 28 28 28 29 29 30
24 22 21 20 19 18 17 16 15 14 14 14 14 14 14 14 15 16 18 19 20 22 23 25 26 27 28 28 29 29 29 29 29 29 30 30 31 31 32 32 32 33 33 33 33 33 32 32 31 31 30 30 29 30 30 30 29 28 28 28 28 27 27 28 28 28 29 29 30
22 20 19 18 17 16 15 15 15 15 15 15 15 15 15 17 18 20 22 23 23 24 25 25 26 27 28 28 28 29 29 29 30 30 31 31 32 33 33 33 33 33 33 33 33 33 32 31 30 29 29 29 29 29 29 28 28 28 28 28 28 28 28 28 28 28 29 29 30
19 19 18 17 16 16 15 15 15 15 15 14 14 15 17 19 21 23 24 24 24 24 25 26 27 27 28 28 28 29 29 30 31 31 32 33 33 33 34 34 34 34 33 33 33 32 31 30 29 29 28 28 28 28 28 27 28 28 29 28 28 28 28 28 28 29 29 30 31
18 17 16 16 16 16 16 15 15 14 14 14 15 16 17 20 22 23 23 23 24 25 25 26 26 27 27 27 28 29 30 30 31 32 32 33 33 33 33 33 33 32 32 31 31 30 29 28 27 27 27 27 28 28 29 28 29 29 29 29 29 29 29 30 30 30 30 31 32
16 15 15 15 16 15 15 13 12 12 12 14 15 16 17 18 19 20 21 23 24 24 25 25 25 25 26 27 28 28 29 30 30 30 31 31 31 31 30 30 30 30 30 30 29 29 29 28 28 28 29 30 29 29 29 30 30 30 31 31 31 31 31 31 31 31 32 32 33
15 15 15 15 14 13 12 11 10 11 12 14 15 16 16 15 15 17 19 21 22 23 23 23 23 23 24 25 26 26 27 27 28 28 28 28 29 29 29 29 29 29 30 30 30 29 29 29 30 30 30 30 31 31 30 31 31 31 31 32 32 32 33 33 33 33 33 32 33
16 15 14 13 12 10 10 10 12 13 14 15 15 15 14 14 14 15 17 19 20 20 21 21 21 22 22 23 24 25 25 25 26 26 27 27 28 28 29 29 30 30 30 31 31 31 31 31 31 31 32 32 32 32 31 31 31 31 32 32 32 33 33 34 34 34 33 34 34
16 15 13 11 11 10 11 13 14 14 14 14 13 13 13 13 14 14 16 17 18 19 20 21 21 22 22 23 24 25 25 26 26 27 27 28 29 29 30 30 30 31 31 31 31 31 31 32 32 32 32 32 32 33 32 31 32 32 32 33 33 33 34 34 34 34 34 35 35
15 14 12 11 11 12 13 14 14 13 12 12 12 12 12 13 13 14 16 18 19 20 21 22 22 23 23 24 25 25 26 27 27 27 28 29 29 30 30 30 31 31 31 31 31 31 31 31 31 31 32 32 32 32 32 32 32 33 33 34 34 34 34 35 35 35 35 35 36
14 13 12 11 12 13 14 14 13 12 11 11 11 12 12 13 14 15 17 19 20 21 22 23 23 24 24 25 26 26 27 27 27 28 28 29 29 29 30 30 30 30 30 30 30 30 30 30 31 31 32 32 32 32 32 33 33 34 34 34 35 35 35 36 36 36 36 36 36
13 12 12 12 12 13 12 12 11 11 11 11 12 12 13 14 15 17 18 19 21 22 23 24 24 25 25 26 27 27 27 27 28 28 28 29 29 29 29 30 29 29 29 29 29 30 30 31 31 31 32 33 33 33 33 34 34 35 35 35 36 36 37 37 37 37 37 38 37
12 12 12 12 12 11 11 11 11 11 11 12 12 13 14 16 17 18 20 21 21 22 23 24 25 25 26 27 27 28 28 28 28 29 29 29 30 30 30 30 30 30 30 30 30 30 30 31 31 31 32 32 33 33 34 34 35 36 36 36 36 37 37 37 37 37 37 37 38
10 11 11 11 11 11 11 11 11 11 12 12 13 14 15 17 19 20 21 22 22 23 24 24 25 26 26 27 27 28 28 28 29 30 30 30 31 31 31 31 31 30 30 30 30 30 31 31 31 32 32 32 33 33 34 35 35 36 36 36 37 37 37 36 36 37 37 37 38
10 10 10 10 11 11 11 11 11 12 12 13 14 16 17 19 21 22 22 23 23 23 24 24 25 26 26 27 28 28 28 29 29 30 30 31 31 31 31 31 30 30 30 30 30 31 31 31 31 31 32 32 32 33 34 34 35 35 35 36 36 35 36 36 37 37 38 39 40
10 10 10 11 11 11 11 11 11 12 13 14 16 18 20 21 22 23 23 23 23 24 24 24 25 26 26 27 28 29 29 30 30 30 31 31 31 31 31 31 31 30 30 30 31 31 31 31 31 31 31 31 32 33 33 34 34 34 34 34 34 35 36 37 38 38 38 39 39
10 10 10 10 10 10 11 11 12 12 14 16 18 20 21 22 22 22 23 23 23 23 24 25 25 26 27 28 29 30 31 32 32 32 32 32 32 32 32 31 31 31 31 31 31 31 30 30 30 31 31 31 31 32 32 33 33 33 33 33 35 36 36 37 37 37 37 37 37
10 10 10 10 10 10 11 11 12 13 15 17 18 19 20 20 21 21 21 22 22 23 24 25 26 27 29 30 31 32 33 34 34 33 33 33 33 32 32 31 31 31 31 31 31 30 30 30 30 30 30 30 30 31 31 31 31 32 33 34 35 36 37 37 36 36 35 35 36
10 10 10 10 10 11 11 12 13 14 15 16 17 17 18 19 19 20 20 22 22 23 24 26 27 28 30 31 32 33 33 34 34 34 34 33 32 32 31 31 30 30 30 30 30 29 29 30 29 29 29 30 30 30 31 32 32 33 35 36 37 37 37 36 36 35 35 35 35
10 10 10 10 11 11 12 13 13 14 15 16 16 17 17 18 19 20 21 23 24 25 26 28 29 30 30 31 32 33 33 33 33 33 33 33 32 31 30 30 30 29 29 29 29 30 30 31 31 31 31 31 32 32 33 35 36 37 37 37 37 36 36 35 35 34 34 35 35
10 10 11 11 11 12 12 13 13 15 16 16 17 17 18 19 19 21 23 24 25 26 27 29 29 30 31 32 33 33 33 33 32 32 31 31 31 30 30 29 29 28 28 29 30 30 30 30 31 32 34 34 34 35 36 37 36 36 37 36 36 36 35 35 35 35 35 34 34
10 11 11 11 12 12 12 13 14 15 16 17 17 18 19 20 21 23 24 25 27 28 29 29 29 30 31 32 31 31 31 31 30 30 30 30 30 30 30 30 29 29 29 30 30 30 30 30 31 33 34 35 36 37 38 39 38 37 37 37 36 35 35 35 35 35 35 34 34
11 11 12 12 12 13 13 14 15 16 17 17 19 20 21 23 24 25 26 26 27 27 28 29 29 29 29 28 28 28 29 29 29 29 29 30 30 30 30 30 30 29 30 30 30 30 31 32 33 34 35 37 38 38 38 38 38 38 37 35 34 34 34 34 34 34 34 34 34
11 11 12 12 13 13 14 15 16 17 18 19 21 23 24 25 25 26 26 26 27 27 27 27 27 26 27 27 28 29 30 30 30 30 30 30 30 30 30 30 30 30 30 30 30 31 32 34 35 37 38 39 39 39 38 37 36 35 34 34 33 33 32 33 33 33 33 33 33
11 12 12 12 13 14 15 16 17 18 20 21 23 24 25 25 25 25 26 26 26 26 27 27 27 27 28 29 30 30 30 30 30 29 30 30 30 30 30 30 30 30 30 30 31 32 34 36 39 40 40 39 38 36 35 34 34 34 34 34 34 34 33 34 34 34 34 33 33
12 12 12 13 14 15 15 16 18 20 22 23 24 24 24 24 25 25 26 26 27 27 28 28 28 29 29 29 29 29 30 30 30 30 29 30 30 30 30 30 30 30 30 31 33 36 38 39 40 39 37 34 32 31 32 33 34 35 35 36 35 35 34 34 34 34 34 34 34
12 13 12 13 14 15 16 18 20 22 23 23 23 24 24 24 25 26 27 28 28 28 29 28 28 29 29 29 29 29 29 30 30 30 30 30 30 30 30 30 30 30 31 33 36 38 39 38 37 34 32 31 30 31 32 33 34 35 36 36 36 36 35 36 36 36 35 35 35
12 12 13 13 14 15 17 20 22 22 23 23 23 23 24 26 27 28 29 29 29 28 28 28 28 28 28 29 29 29 30 30 30 30 30 30 30 30 30 30 30 31 34 37 38 38 37 35 33 32 31 30 30 31 32 33 35 35 36 36 36 35 35 35 35 36 36 36 35
13 13 13 14 15 18 21 23 22 22 22 22 23 25 26 28 29 30 30 29 28 27 27 27 27 28 28 29 29 29 30 30 31 31 30 30 29 29 30 30 32 34 36 38 37 36 35 33 32 31 31 30 30 31 32 33 34 34 34 35 34 34 34 34 35 35 35 35 35
13 13 14 15 18 21 23 22 22 21 22 23 25 27 29 29 29 29 28 27 27 27 27 27 28 28 28 29 29 29 30 30 31 31 30 30 29 29 30 32 34 36 37 36 35 34 33 32 31 30 30 29 30 30 31 32 33 33 33 33 33 33 33 33 33 33 34 34 34
11 12 15 18 20 21 21 20 20 21 22 24 27 29 29 29 28 27 27 27 27 27 28 28 28 29 29 29 29 29 29 30 30 30 30 30 30 30 32 34 36 37 36 34 33 32 31 31 30 28 28 28 28 29 30 31 31 32 32 32 32 32 32 32 32 32 33 33 33
11 14 16 18 19 19 19 20 21 22 24 25 27 27 27 27 26 26 26 26 27 27 28 29 29 29 29 29 29 30 29 29 29 29 30 31 31 32 33 35 36 35 34 33 32 31 30 29 27 26 25 26 27 28 29 30 31 31 32 32 32 31 31 31 31 32 32 32 32
13 15 16 17 18 18 19 20 22 23 25 26 26 26 26 26 26 26 26 26 27 27 28 29 29 29 29 30 30 30 30 29 29 29 30 31 32 33 34 35 35 34 33 31 30 29 28 26 25 23 23 24 26 27 29 30 30 31 31 31 31 31 31 31 31 31 31 31 32
15 16 17 17 18 19 20 21 22 23 24 25 25 26 26 26 26 27 27 27 27 27 28 28 29 29 30 30 30 30 30 29 28 28 30 32 33 34 34 34 33 32 31 29 28 27 26 25 24 22 22 23 25 27 28 29 30 31 31 31 31 31 30 30 29 29 30 30 31
16 16 17 17 19 20 21 22 22 23 24 25 26 27 27 26 27 27 28 27 27 27 28 28 29 30 30 30 29 29 29 28 29 30 31 33 34 33 32 31 31 30 29 27 26 26 25 24 23 22 22 23 25 26 28 29 31 31 31 31 31 30 29 28 27 27 28 28 29
16 16 17 18 19 20 21 22 22 24 25 26 26 27 27 27 27 27 27 27 27 28 28 29 30 30 29 29 28 28 28 29 31 33 33 33 33 31 30 29 29 29 28 27 26 25 25 25 24 23 23 23 25 26 28 30 31 32 32 31 30 28 27 27 27 27 28 28 28
Wind_Direction
228 228 229 231 234 236 237 238 239 241 243 246 247 250 253 254 255 257 261 266 271 275 279 282 284 287 289 292 294 295 296 297 297 297 297 297 297 297 297 297 297 297 296 296 295 294 293 291 289 287 284 281 280 278 277 276 276 275 274 274 274 274 273 272 272 271 270 270 269
227 230 233 235 237 239 241 244 246 248 249 250 250 251 253 255 258 262 268 273 277 281 284 287 289 291 292 293 294 295 296 296 296 296 296 296 297 297 297 298 298 298 297 296 295 293 292 290 288 286 284 281 279 278 277 276 275 274 274 273 273 273 272 272 271 270 270 269 268
231 236 239 240 242 244 246 248 250 251 251 251 251 251 253 257 263 270 275 279 283 286 289 291 292 293 293 294 295 296 296 296 296 296 297 297 297 298 298 298 298 297 295 293 292 290 289 288 286 284 282 280 278 277 276 276 276 275 274 273 273 272 272 271 271 270 270 269 268
236 240 243 245 247 248 248 249 251 251 250 249 251 253 258 265 273 279 284 287 289 290 291 291 292 292 293 295 296 297 296 296 296 297 297 298 298 298 298 298 297 295 294 292 290 289 288 286 284 282 280 279 278 276 276 276 276 275 274 273 273 272 272 271 271 270 270 269 268
240 244 247 249 249 248 248 248 248 247 246 248 254 262 270 277 283 287 290 290 289 289 288 287 289 292 294 296 296 296 296 296 296 297 298 298 299 299 299 298 297 296 295 293 292 291 290 288 286 284 282 280 279 277 277 276 275 275 274 273 272 272 271 271 270 270 269 269 268
243 247 249 249 247 245 245 245 244 245 248 256 265 274 282 286 289 291 290 286 286 286 287 289 291 293 294 295 295 295 296 297 298 298 299 300 300 300 299 298 297 296 295 294 293 292 291 289 287 285 284 282 280 279 279 278 276 274 274 273 272 271 271 270 270 270 269 268 268
246 248 247 246 244 243 243 244 248 253 261 268 276 282 287 290 291 290 290 289 290 290 291 292 292 293 294 294 295 296 298 299 300 301 301 301 301 300 300 299 297 296 295 293 292 291 290 288 286 284 282 281 280 279 279 279 277 275 273 272 272 271 270 270 269 269 268 268 267
245 244 243 242 241 242 245 251 256 263 270 276 281 286 289 290 290 290 291 293 293 293 293 292 292 292 293 295 297 299 300 302 303 303 303 302 302 301 300 299 297 296 295 293 292 291 289 287 284 282 280 279 278 278 277 277 276 274 273 272 271 271 270 269 269 268 268 267 267
240 238 238 239 241 246 251 257 262 268 275 281 284 286 287 288 290 292 294 295 294 293 293 293 293 294 296 298 300 302 303 304 304 304 304 303 302 301 300 299 298 297 295 294 292 291 289 286 282 280 278 277 276 275 275 274 273 272 272 271 270 270 269 268 268 268 267 267 267
233 233 236 241 247 251 256 261 267 272 277 281 283 283 285 288 291 294 296 296 295 295 295 295 297 299 301 302 304 304 305 305 304 304 303 302 301 300 299 298 297 295 294 292 290 288 285 282 278 276 274 274 273 273 273 272 271 271 270 269 269 269 268 267 267 267 267 267 266
230 234 240 247 252 257 260 265 269 272 275 278 280 282 284 287 290 293 295 296 296 296 297 299 301 302 303 304 304 304 303 303 302 301 300 299 298 297 295 293 292 290 288 287 285 283 280 278 276 274 273 273 272 272 271 270 270 269 268 268 268 267 267 266 266 266 266 266 266
232 239 245 250 254 257 260 261 262 265 271 276 280 282 283 283 285 288 291 294 295 296 298 300 301 301 300 300 299 299 299 298 296 295 294 293 292 291 289 287 286 284 283 282 281 279 276 275 274 274 273 273 272 271 270 270 269 268 268 268 267 267 266 266 266 266 265 265 265
238 243 246 248 246 245 248 255 263 269 273 277 279 281 282 281 282 284 287 290 292 294 296 297 297 296 295 294 294 293 292 292 290 289 288 287 286 286 284 283 282 282 281 280 279 277 275 274 274 273 273 273 272 271 270 269 269 268 268 267 267 267 266 266 266 265 265 265 265
241 243 242 240 240 243 252 263 270 273 275 277 276 277 279 280 280 282 284 286 289 291 292 294 294 293 293 292 292 291 290 289 288 287 286 285 284 284 283 282 282 281 280 279 278 277 276 274 274 273 273 272 271 270 269 268 268 268 268 267 267 266 266 266 266 266 265 265 265
240 238 234 232 241 253 263 269 272 273 273 272 272 274 276 278 278 280 283 285 288 291 293 294 294 294 294 294 293 292 291 290 289 287 286 285 285 284 283 282 281 280 279 278 277 276 274 273 272 271 271 270 270 269 268 268 268 268 267 267 267 266 266 266 266 266 266 265 265
235 233 234 241 252 261 267 269 271 271 270 270 271 273 274 276 279 281 284 287 290 292 294 295 295 295 296 295 295 294 293 292 290 288 287 286 285 284 283 281 280 279 277 276 274 273 272 271 270 269 269 269 269 268 268 268 268 267 267 267 267 266 266 267 266 266 266 266 265
232 237 244 252 258 262 263 264 264 265 266 268 270 271 274 276 280 283 286 289 292 293 294 295 295 295 295 296 296 296 294 292 291 289 288 287 286 284 283 281 279 277 276 275 274 272 271 270 269 269 269 269 268 267 268 268 268 267 267 266 266 266 266 266 266 266 266 265 265
238 247 253 257 257 256 256 256 257 260 263 266 269 271 274 278 282 286 290 292 293 293 294 294 295 295 294 295 295 295 294 292 291 290 289 288 286 285 283 282 280 278 277 275 274 272 271 271 270 269 268 268 267 267 268 268 268 267 267 267 267 266 266 266 266 266 265 265 264
245 252 254 253 250 251 252 253 255 258 262 265 268 272 277 281 286 291 294 295 295 295 294 294 293 293 293 293 294 294 293 292 291 290 289 288 287 285 284 282 280 279 277 275 274 273 272 271 270 269 269 268 268 268 268 268 268 268 268 268 267 267 266 266 266 265 265 265 264
249 253 252 249 248 249 250 252 255 258 262 266 270 275 281 286 292 295 296 296 296 296 295 293 293 292 292 293 292 292 292 291 290 289 288 288 286 285 283 282 280 278 277 276 274 273 272 271 271 270 270 270 269 269 269 270 270 269 269 268 267 267 267 266 266 266 266 265 264
251 250 249 247 246 247 249 252 256 260 264 269 275 281 288 293 296 298 298 297 297 296 295 294 293 292 292 292 291 291 291 291 290 289 288 287 286 285 284 282 280 279 277 276 275 274 273 272 272 272 272 271 271 271 271 271 270 269 269 268 268 268 268 268 268 268 267 266 265
251 248 245 244 244 247 251 255 260 264 269 275 282 288 294 297 298 298 298 297 297 295 293 294 293 292 291 291 291 292 293 293 293 292 291 289 288 287 286 284 282 280 279 278 277 276 275 275 275 274 274 274 274 274 273 272 271 270 269 269 270 270 271 270 270 269 268 267 267
249 245 242 242 245 249 254 259 264 269 275 281 287 292 295 296 296 296 294 293 293 292 291 292 292 292 292 292 292 294 295 295 295 295 294 292 291 289 288 286 284 282 281 280 279 278 278 278 277 276 275 275 275 274 273 272 270 270 271 272 273 273 273 273 271 270 268 267 266
245 241 240 243 247 253 258 264 268 274 280 285 289 291 293 293 292 292 291 291 291 290 291 292 292 293 293 293 295 296 296 296 296 296 295 294 292 289 287 286 283 281 280 279 279 278 278 278 277 276 276 275 274 273 271 270 271 272 274 275 276 276 276 274 272 270 269 267 266
242 240 241 245 251 257 263 268 273 279 285 288 290 291 291 291 291 291 292 293 293 292 292 293 294 294 295 296 298 298 298 297 296 295 295 294 292 289 286 285 283 281 280 279 278 277 277 276 276 276 277 276 275 273 273 273 274 275 277 277 278 278 277 276 274 273 271 269 267
240 241 244 250 256 261 267 272 278 284 288 291 292 293 293 293 293 293 294 295 295 294 294 296 296 297 298 300 300 300 299 298 296 294 292 291 289 287 285 283 282 281 280 280 279 279 278 277 276 276 275 275 275 276 276 277 278 279 279 279 279 278 277 276 275 275 273 272 270
240 243 248 254 260 265 270 276 283 288 291 293 294 294 295 295 296 296 297 297 297 297 298 299 299 299 300 300 299 298 297 295 293 291 289 287 287 286 285 283 282 281 280 280 280 280 279 278 276 275 274 275 276 277 279 280 280 280 280 280 279 278 277 276 275 275 275 273 272
242 246 252 258 263 268 275 281 287 290 292 294 295 296 297 298 299 299 299 299 300 300 300 300 300 300 299 296 294 293 292 291 289 288 287 286 286 285 285 284 283 282 282 282 282 281 280 278 276 275 275 275 277 279 280 281 281 281 280 279 278 277 276 275 275 275 274 273 272
245 250 256 261 266 272 279 285 289 292 293 295 297 299 300 301 301 301 301 301 301 301 300 299 298 297 295 293 292 292 291 290 289 288 287 287 286 286 285 285 284 284 283 283 282 281 279 277 276 276 277 278 280 281 282 282 282 282 280 279 277 276 275 275 274 274 274 273 273
250 255 259 263 270 277 283 288 291 294 296 298 300 302 303 303 302 302 302 302 301 301 300 299 298 296 295 294 293 293 292 291 290 290 289 288 287 287 286 286 285 285 285 284 282 280 278 278 279 281 282 284 285 286 286 285 284 283 281 280 279 277 276 275 275 274 274 273 273
254 258 262 268 274 280 285 289 293 297 300 302 303 303 303 302 302 302 302 302 302 301 301 300 299 297 296 295 293 292 292 292 291 291 290 289 288 288 288 287 287 287 286 284 282 281 282 284 286 288 290 292 292 291 289 288 287 285 283 282 281 279 277 276 276 274 273 272 272
256 260 265 271 277 283 288 293 297 301 303 303 303 303 302 302 302 303 303 303 303 303 302 301 299 298 296 295 294 293 293 292 292 291 290 290 289 289 289 289 289 288 286 284 284 286 289 291 294 296 297 298 297 295 292 290 288 287 285 283 282 280 279 278 276 275 274 272 271
257 262 268 274 280 287 293 298 301 303 303 303 303 302 302 302 303 305 306 306 305 304 302 300 299 297 296 295 295 294 293 293 292 292 291 291 291 291 291 291 290 288 287 288 290 293 296 299 300 301 301 300 299 297 294 292 290 288 286 284 283 282 280 279 278 276 275 274 272
260 266 272 278 285 293 298 302 303 303 303 303 302 302 303 304 306 307 307 306 305 303 301 299 298 297 296 295 295 294 294 294 293 293 293 293 293 293 292 292 290 290 291 294 297 300 302 303 303 303 303 302 300 297 294 292 290 289 287 286 285 284 283 282 280 279 278 276 275
267 273 279 285 292 298 302 304 303 302 302 302 302 303 305 306 307 307 306 305 303 301 300 299 298 297 296 295 295 295 295 295 295 295 294 294 294 294 293 292 292 294 297 300 303 304 305 305 305 305 303 302 299 297 295 293 291 290 289 288 287 287 286 285 283 281 280 278 276
273 280 286 292 298 301 302 301 301 301 302 302 302 304 306 307 307 306 305 304 303 301 300 300 299 298 298 297 297 296 296 296 296 296 295 295 295 295 294 295 297 300 303 305 306 307 307 307 306 306 304 302 299 297 296 294 293 292 292 291 290 289 288 287 285 283 281 279 277
282 290 294 297 299 299 299 299 300 301 302 302 303 305 306 306 305 305 304 304 303 302 301 301 300 299 299 298 298 298 297 297 297 296 296 296 296 296 297 298 301 304 307 309 309 309 309 309 308 307 305 303 300 299 297 296 295 294 294 293 292 292 291 289 287 285 282 280 278
292 296 298 298 297 297 298 299 301 302 302 303 304 305 305 305 305 305 305 304 303 302 302 301 301 300 300 300 299 299 298 298 297 297 297 297 297 298 299 301 304 307 309 311 312 312 312 312 311 310 308 305 302 300 299 298 296 296 295 294 294 294 293 291 289 286 283 281 280
297 299 299 298 297 298 300 301 302 302 303 304 305 305 306 306 306 305 305 305 304 303 302 301 301 301 301 301 301 300 299 299 298 297 297 297 298 300 302 304 306 308 311 313 314 315 315 315 315 313 311 307 304 302 300 299 298 297 296 296 295 295 294 293 290 287 284 281 280
300 300 300 299 300 301 302 302 302 303 303 304 305 306 306 306 306 306 306 306 305 303 302 302 301 302 302 302 301 301 300 300 299 298 298 299 302 304 306 307 308 310 313 315 317 317 317 317 317 316 313 309 306 304 302 300 299 298 297 297 296 295 295 294 292 289 286 284 281
303 302 301 301 302 303 303 303 303 304 304 305 306 307 307 308 308 307 307 306 305 304 303 302 303 303 303 303 302 301 300 299 299 300 301 304 307 309 310 310 310 311 313 316 317 318 318 318 318 317 314 311 308 306 303 301 299 298 297 296 296 296 295 295 293 291 289 287 284
Height
1470 1469 1468 1468 1469 1470 1470 1470 1470 1471 1471 1471 1472 1472 1472 1472 1473 1473 1473 1473 1474 1474 1474 1474 1474 1474 1473 1473 1473 1472 1471 1471 1470 1469 1469 1468 1467 1467 1466 1465 1465 1464 1464 1463 1463 1462 1462 1461 1461 1460 1460 1459 1458 1458 1457 1457 1456 1456 1455 1455 1454 1454 1453 1453 1452 1452 1451 1451 1451
1466 1466 1466 1467 1468 1468 1468 1468 1469 1470 1470 1470 1470 1471 1471 1471 1471 1471 1472 1472 1472 1472 1472 1472 1472 1472 1471 1471 1471 1470 1470 1469 1468 1467 1467 1466 1465 1465 1464 1463 1463 1462 1461 1461 1460 1460 1460 1459 1459 1458 1457 1456 1456 1455 1455 1454 1454 1454 1453 1452 1452 1451 1451 1450 1449 1449 1449 1449 1448
1464 1465 1465 1466 1466 1467 1467 1467 1467 1468 1469 1469 1469 1469 1470 1470 1470 1470 1470 1470 1470 1470 1470 1470 1470 1470 1470 1469 1469 1468 1467 1467 1466 1465 1465 1464 1463 1463 1462 1461 1461 1460 1460 1459 1459 1458 1458 1457 1456 1455 1455 1454 1453 1453 1452 1452 1452 1451 1451 1450 1450 1449 1448 1447 1447 1447 1446 1446 1445
1463 1464 1464 1465 1465 1465 1465 1465 1466 1467 1467 1467 1467 1468 1468 1469 1469 1469 1469 1469 1469 1469 1469 1469 1468 1468 1467 1467 1466 1466 1465 1465 1464 1463 1462 1462 1461 1460 1460 1460 1459 1458 1458 1457 1457 1456 1455 1455 1454 1453 1452 1451 1451 1450 1450 1449 1449 1449 1448 1447 1447 1447 1446 1445 1445 1444 1444 1443 1443
1462 1462 1463 1463 1464 1464 1464 1465 1465 1465 1466 1466 1466 1467 1467 1467 1467 1467 1467 1468 1468 1468 1468 1468 1467 1466 1465 1465 1464 1464 1463 1462 1462 1461 1460 1460 1459 1459 1458 1457 1457 1456 1455 1455 1454 1454 1453 1452 1451 1450 1450 1449 1448 1447 1447 1447 1446 1446 1445 1445 1444 1444 1443 1443 1442 1442 1442 1441 1440
1460 1461 1461 1462 1462 1462 1463 1463 1464 1464 1465 1465 1465 1466 1466 1466 1466 1466 1466 1466 1467 1466 1466 1465 1465 1464 1464 1463 1462 1462 1461 1460 1460 1459 1458 1458 1457 1456 1456 1455 1455 1454 1453 1452 1452 1451 1450 1450 1449 1448 1447 1446 1445 1444 1444 1444 1444 1443 1442 1442 1441 1441 1441 1440 1440 1440 1439 1439 1438
1459 1460 1460 1460 1460 1461 1461 1462 1463 1463 1464 1464 1464 1465 1465 1465 1465 1465 1465 1465 1465 1465 1464 1464 1463 1462 1462 1461 1460 1460 1459 1458 1458 1457 1456 1455 1455 1454 1454 1453 1452 1452 1451 1450 1450 1449 1448 1447 1446 1445 1444 1443 1442 1442 1441 1441 1441 1440 1440 1439 1439 1439 1438 1437 1437 1437 1436 1436 1436
1458 1458 1458 1458 1459 1460 1460 1461 1461 1462 1462 1463 1463 1463 1463 1463 1463 1463 1463 1463 1463 1462 1462 1461 1461 1460 1460 1459 1458 1458 1457 1456 1455 1455 1454 1453 1453 1452 1451 1450 1450 1449 1448 1448 1447 1446 1445 1445 1444 1443 1442 1441 1440 1439 1439 1439 1438 1438 1437 1436 1436 1436 1435 1435 1435 1435 1434 1434 1434
1456 1456 1456 1457 1458 1458 1459 1460 1460 1461 1461 1461 1461 1461 1462 1461 1461 1461 1461 1461 1460 1460 1460 1460 1459 1459 1458 1457 1456 1455 1455 1454 1453 1452 1452 1451 1450 1450 1449 1448 1447 1446 1445 1445 1444 1444 1443 1442 1441 1440 1440 1439 1438 1437 1436 1436 1436 1435 1435 1434 1434 1433 1433 1433 1432 1432 1432 1431 1431
1454 1454 1455 1455 1456 1457 1458 1458 1459 1459 1460 1460 1460 1460 1460 1460 1459 1459 1459 1459 1459 1458 1458 1458 1457 1456 1455 1455 1454 1453 1453 1452 1451 1450 1450 1449 1448 1447 1446 1445 1445 1444 1443 1443 1442 1441 1440 1440 1439 1438 1437 1436 1436 1435 1434 1434 1433 1433 1432 1432 1431 1431 1430 1430 1430 1430 1429 1429 1429
1452 1453 1453 1454 1455 1455 1456 1457 1457 1458 1458 1458 1458 1458 1458 1458 1458 1457 1457 1457 1457 1456 1456 1455 1455 1454 1453 1453 1452 1451 1450 1450 1449 1448 1447 1446 1445 1445 1444 1443 1442 1442 1441 1440 1440 1439 1438 1437 1436 1435 1435 1434 1433 1432 1432 1431 1431 1430 1430 1429 1429 1428 1428 1427 1427 1427 1427 1426 1426
1451 1451 1452 1453 1453 1454 1455 1455 1456 1456 1456 1457 1457 1457 1457 1456 1456 1456 1456 1455 1455 1455 1454 1454 1453 1453 1452 1451 1450 1450 1449 1448 1447 1446 1445 1444 1443 1443 1442 1441 1440 1439 1439 1438 1437 1437 1436 1435 1434 1433 1432 1431 1430 1430 1429 1429 1428 1428 1427 1426 1426 1426 1425 1425 1425 1425 1424 1424 1423
1450 1450 1451 1452 1452 1453 1454 1454 1455 1455 1455 1455 1455 1455 1455 1455 1455 1455 1454 1454 1454 1453 1453 1452 1452 1451 1450 1450 1449 1448 1447 1446 1445 1444 1443 1442 1441 1440 1440 1439 1438 1437 1436 1435 1435 1434 1433 1432 1431 1430 1429 1428 1428 1427 1426 1426 1425 1425 1425 1424 1424 1423 1423 1422 1422 1422 1422 1421 1421
1449 1450 1450 1451 1451 1452 1452 1453 1453 1453 1454 1454 1454 1454 1453 1453 1453 1453 1453 1452 1452 1451 1451 1450 1450 1450 1449 1448 1447 1446 1445 1444 1443 1442 1441 1440 1439 1438 1437 1436 1435 1434 1433 1432 1431 1431 1430 1429 1428 1427 1426 1426 1425 1424 1424 1423 1423 1422 1422 1421 1421 1420 1420 1419 1419 1419 1419 1418 1418
1448 1449 1449 1450 1450 1450 1451 1451 1452 1452 1452 1452 1452 1452 1452 1452 1452 1452 1451 1451 1450 1450 1449 1449 1448 1447 1447 1446 1445 1444 1443 1442 1441 1440 1439 1437 1436 1435 1434 1433 1432 1431 1430 1430 1429 1428 1427 1426 1425 1425 1424 1423 1422 1422 1421 1421 1420 1420 1419 1419 1418 1417 1417 1416 1416 1416 1416 1415 1415
1448 1448 1448 1449 1449 1450 1450 1450 1450 1450 1450 1450 1451 1451 1451 1450 1450 1450 1450 1449 1448 1448 1447 1446 1446 1445 1444 1444 1443 1441 1440 1439 1438 1437 1436 1435 1434 1433 1432 1431 1430 1429 1428 1427 1426 1425 1425 1424 1423 1422 1421 1420 1420 1419 1419 1418 1417 1417 1416 1415 1415 1414 1414 1413 1413 1413 1412 1412 1411
1447 1447 1447 1448 1448 1448 1448 1449 1449 1449 1449 1449 1450 1450 1449 1449 1449 1448 1448 1447 1446 1445 1445 1444 1444 1443 1442 1441 1440 1439 1438 1437 1435 1435 1433 1432 1431 1430 1429 1428 1427 1426 1425 1425 1424 1423 1422 1421 1420 1420 1419 1418 1417 1416 1416 1415 1415 1414 1413 1412 1412 1411 1410 1410 1410 1409 1409 1408 1407
1446 1446 1446 1447 1447 1447 1447 1447 1447 1448 1448 1448 1448 1448 1448 1447 1447 1446 1446 1445 1445 1444 1443 1442 1441 1440 1439 1438 1437 1436 1435 1434 1433 1432 1430 1430 1428 1427 1426 1425 1425 1424 1423 1422 1421 1420 1419 1418 1417 1417 1416 1415 1414 1413 1413 1412 1411 1410 1410 1409 1408 1408 1407 1406 1406 1405 1405 1404 1403
1445 1445 1445 1446 1446 1446 1446 1446 1446 1446 1447 1446 1446 1446 1446 1445 1445 1445 1444 1443 1443 1442 1441 1440 1439 1438 1437 1436 1435 1434 1432 1431 1430 1429 1428 1426 1425 1424 1423 1422 1421 1421 1420 1419 1418 1417 1416 1415 1414 1414 1413 1412 1411 1410 1410 1409 1408 1407 1406 1405 1405 1404 1403 1403 1402 1401 1401 1400 1399
1444 1445 1445 1445 1445 1445 1445 1445 1445 1445 1445 1445 1445 1445 1444 1444 1443 1443 1442 1441 1440 1440 1439 1438 1437 1435 1435 1433 1432 1431 1430 1429 1427 1426 1425 1424 1423 1421 1420 1420 1419 1418 1417 1416 1415 1414 1413 1412 1411 1410 1410 1409 1408 1407 1406 1405 1405 1404 1403 1402 1401 1400 1399 1399 1398 1397 1396 1395 1395
1443 1444 1444 1444 1444 1444 1444 1444 1444 1444 1444 1444 1443 1443 1442 1442 1441 1440 1440 1439 1438 1438 1437 1435 1435 1434 1432 1431 1430 1429 1428 1426 1425 1424 1422 1421 1420 1419 1418 1417 1415 1415 1414 1413 1412 1410 1410 1409 1408 1407 1406 1406 1405 1404 1403 1402 1401 1400 1399 1398 1397 1396 1395 1395 1394 1393 1392 1391 1390
1442 1443 1443 1443 1443 1443 1443 1443 1443 1443 1442 1442 1441 1441 1440 1440 1439 1438 1438 1437 1436 1435 1435 1434 1433 1432 1430 1429 1428 1426 1425 1424 1422 1421 1419 1418 1417 1415 1415 1414 1412 1411 1410 1409 1408 1407 1406 1406 1405 1404 1404 1403 1402 1401 1400 1399 1398 1396 1395 1394 1393 1392 1391 1390 1390 1389 1388 1387 1386
1441 1441 1442 1442 1442 1442 1442 1442 1442 1441 1441 1440 1440 1439 1439 1438 1437 1436 1436 1435 1434 1433 1432 1431 1430 1429 1428 1426 1425 1424 1422 1420 1419 1417 1416 1415 1414 1412 1411 1410 1410 1408 1407 1406 1405 1405 1404 1403 1402 1401 1401 1400 1399 1398 1397 1396 1394 1393 1391 1390 1389 1388 1387 1386 1385 1385 1384 1383 1382
1440 1440 1440 1441 1441 1441 1441 1441 1440 1440 1440 1439 1439 1438 1437 1436 1435 1435 1434 1433 1432 1431 1430 1429 1428 1426 1425 1424 1422 1421 1419 1417 1416 1414 1413 1412 1411 1410 1409 1408 1407 1406 1405 1403 1403 1402 1401 1400 1399 1399 1398 1397 1396 1395 1393 1392 1390 1389 1388 1387 1385 1384 1383 1382 1381 1380 1379 1378 1378
1439 1439 1440 1440 1440 1440 1440 1440 1439 1439 1438 1438 1437 1437 1436 1435 1434 1433 1432 1431 1430 1429 1428 1427 1425 1424 1422 1421 1419 1418 1416 1415 1413 1411 1410 1409 1408 1407 1406 1405 1404 1403 1402 1400 1399 1399 1398 1397 1396 1395 1394 1393 1392 1390 1389 1388 1386 1385 1384 1383 1382 1380 1379 1378 1377 1376 1375 1374 1374
1438 1438 1438 1438 1439 1439 1438 1438 1438 1437 1437 1436 1436 1435 1435 1434 1432 1431 1430 1429 1428 1426 1425 1424 1423 1421 1420 1418 1416 1415 1413 1412 1410 1409 1408 1407 1405 1405 1404 1403 1401 1400 1399 1398 1396 1395 1395 1394 1393 1392 1391 1389 1388 1386 1385 1384 1383 1382 1380 1379 1378 1377 1375 1374 1373 1372 1371 1371 1370
1437 1437 1437 1437 1437 1437 1437 1437 1436 1436 1435 1435 1434 1434 1433 1432 1430 1430 1428 1427 1425 1424 1423 1421 1420 1418 1416 1415 1414 1412 1411 1410 1408 1407 1406 1405 1403 1402 1401 1400 1399 1397 1396 1395 1394 1393 1392 1391 1390 1389 1388 1386 1385 1383 1382 1380 1379 1378 1377 1376 1375 1374 1372 1371 1370 1369 1368 1367 1367
1436 1436 1436 1436 1436 1436 1436 1435 1435 1435 1434 1433 1433 1432 1430 1430 1428 1427 1426 1425 1423 1422 1420 1419 1417 1416 1415 1413 1412 1410 1409 1408 1406 1405 1404 1402 1401 1400 1399 1397 1396 1395 1393 1392 1391 1390 1390 1389 1387 1386 1385 1383 1382 1380 1379 1377 1376 1375 1374 1373 1371 1370 1369 1368 1367 1366 1365 1364 1364
1435 1435 1435 1435 1435 1435 1434 1434 1434 1433 1432 1431 1430 1429 1428 1427 1426 1425 1424 1422 1421 1420 1419 1417 1416 1415 1413 1411 1410 1408 1407 1405 1404 1403 1401 1400 1399 1397 1396 1395 1393 1392 1391 1390 1389 1388 1387 1385 1384 1382 1381 1380 1379 1377 1375 1374 1373 1371 1370 1370 1369 1368 1366 1365 1364 1363 1362 1362 1361
1434 1434 1434 1434 1434 1433 1433 1432 1432 1431 1430 1429 1428 1427 1426 1425 1424 1423 1421 1420 1419 1418 1417 1415 1414 1412 1411 1409 1408 1406 1405 1403 1402 1400 1399 1398 1396 1395 1393 1392 1391 1390 1388 1387 1386 1385 1383 1381 1380 1379 1378 1376 1375 1374 1372 1371 1370 1369 1367 1366 1365 1365 1364 1363 1362 1361 1360 1359 1358
1433 1433 1433 1432 1432 1432 1431 1431 1430 1429 1428 1427 1426 1425 1424 1423 1422 1421 1420 1418 1417 1415 1414 1413 1411 1410 1408 1407 1405 1404 1402 1401 1400 1398 1397 1395 1394 1392 1391 1389 1388 1387 1385 1384 1382 1380 1379 1378 1376 1375 1374 1372 1371 1370 1369 1368 1366 1365 1364 1363 1362 1361 1360 1360 1359 1358 1357 1356 1356
1432 1432 1432 1431 1431 1430 1430 1429 1428 1427 1426 1425 1424 1423 1422 1421 1420 1419 1417 1416 1415 1413 1411 1410 1409 1407 1406 1405 1403 1402 1400 1399 1397 1395 1394 1393 1391 1389 1388 1386 1385 1384 1382 1380 1378 1377 1375 1374 1372 1371 1370 1369 1368 1367 1366 1365 1363 1362 1361 1360 1359 1358 1358 1357 1355 1355 1354 1353 1353
1431 1431 1430 1430 1430 1429 1428 1427 1426 1425 1424 1423 1422 1421 1420 1419 1417 1416 1415 1413 1412 1411 1409 1408 1406 1405 1404 1402 1400 1399 1397 1396 1394 1393 1391 1390 1388 1386 1385 1384 1382 1380 1378 1376 1375 1373 1372 1370 1369 1368 1367 1366 1365 1364 1363 1361 1360 1359 1358 1357 1356 1355 1354 1354 1353 1351 1350 1350 1349
1430 1429 1429 1429 1428 1427 1426 1425 1425 1424 1423 1421 1420 1419 1418 1416 1415 1414 1412 1411 1410 1409 1407 1406 1405 1403 1401 1400 1398 1396 1395 1393 1391 1390 1388 1387 1385 1384 1382 1380 1379 1376 1375 1373 1371 1370 1368 1367 1366 1365 1364 1363 1362 1361 1360 1359 1358 1356 1355 1354 1353 1352 1351 1350 1349 1348 1347 1346 1346
1428 1428 1427 1427 1426 1425 1424 1424 1423 1422 1421 1420 1418 1417 1415 1414 1413 1411 1410 1409 1408 1406 1405 1403 1402 1400 1399 1397 1395 1394 1392 1390 1388 1387 1385 1384 1383 1381 1379 1377 1375 1373 1371 1370 1368 1367 1365 1364 1363 1362 1361 1360 1359 1358 1357 1356 1355 1354 1352 1351 1350 1349 1348 1347 1346 1345 1344 1343 1343
1427 1427 1426 1425 1424 1423 1423 1422 1421 1420 1419 1418 1416 1415 1413 1412 1411 1410 1409 1407 1405 1404 1403 1401 1400 1398 1396 1395 1393 1391 1390 1388 1386 1384 1383 1381 1380 1378 1376 1373 1371 1370 1368 1367 1365 1364 1363 1362 1360 1360 1359 1358 1357 1356 1355 1353 1352 1351 1350 1348 1347 1346 1345 1344 1343 1342 1341 1340 1339
1426 1425 1425 1424 1423 1422 1421 1421 1420 1419 1417 1416 1414 1413 1412 1410 1409 1408 1406 1405 1404 1402 1400 1399 1397 1395 1394 1392 1390 1389 1387 1385 1384 1382 1380 1379 1377 1375 1373 1370 1368 1367 1365 1364 1363 1361 1360 1359 1358 1357 1357 1356 1355 1353 1352 1351 1350 1348 1347 1346 1345 1343 1342 1341 1340 1339 1338 1337 1336
1425 1425 1424 1423 1422 1421 1420 1419 1418 1416 1415 1414 1412 1411 1410 1409 1407 1406 1405 1403 1401 1400 1398 1396 1394 1393 1391 1390 1388 1386 1384 1383 1381 1380 1378 1376 1374 1372 1370 1368 1365 1364 1363 1361 1360 1359 1358 1357 1356 1355 1355 1354 1352 1351 1350 1349 1347 1346 1345 1343 1342 1340 1340 1339 1337 1336 1335 1333 1332
1424 1423 1423 1422 1421 1420 1418 1417 1416 1415 1413 1412 1410 1409 1408 1407 1405 1404 1402 1401 1400 1398 1395 1394 1392 1390 1389 1387 1385 1383 1382 1380 1379 1378 1375 1373 1371 1370 1368 1365 1363 1361 1360 1359 1358 1357 1356 1355 1354 1353 1352 1352 1350 1349 1348 1347 1345 1344 1342 1341 1340 1338 1337 1336 1335 1333 1332 1330 1329
1423 1422 1421 1420 1419 1418 1417 1415 1414 1413 1412 1410 1409 1407 1406 1405 1403 1402 1400 1399 1397 1395 1394 1392 1390 1388 1386 1385 1383 1381 1379 1378 1376 1375 1373 1371 1369 1367 1365 1363 1361 1359 1358 1357 1356 1355 1354 1353 1352 1351 1350 1350 1349 1347 1346 1345 1343 1341 1340 1339 1337 1336 1335 1334 1333 1331 1330 1328 1327
1421 1420 1420 1419 1418 1416 1415 1414 1412 1411 1410 1409 1407 1405 1404 1403 1401 1400 1398 1397 1395 1394 1392 1390 1388 1386 1384 1383 1381 1379 1377 1375 1374 1372 1370 1368 1366 1364 1363 1361 1359 1357 1356 1355 1354 1353 1352 1351 1350 1350 1349 1348 1346 1345 1344 1342 1341 1339 1338 1336 1335 1334 1333 1331 1330 1329 1328 1326 1325